Hourly Weather Roundup
Issued by NWS Central Illinois

Home | Current Version | Previous Version | Text Only | Print | Product List | Glossary On
Versions: 1 2 3 4 5 6 7 8 9 10 11 12 13 14 15 16 17 18 19 20 21 22 23 24 25 26 27 28 29 30 31 32 33 34 35 36 37 38 39 40 41 42 43 44 45 46 47 48 49 50
000
NZUS43 KILX 201510
HWRILX

AREA WEATHER ROUNDUP
NATIONAL WEATHER SERVICE, LINCOLN IL
1000 AM CDT WED AUG 20 2014


CITY           SKY/WX    TMP DP  RH WIND       PRES   REMARKS
BLOOMINGTON    PTSUNNY   74  67  78 S6        29.94R
CHAMPAIGN      MOSUNNY   78  70  76 S5        29.93R HX  80
DECATUR        LGT RAIN  74  71  91 S10       29.95R
FLORA          MOSUNNY   76  73  91 NW5       29.95S
GALESBURG      CLOUDY    69  67  93 E5        29.91F
JACKSONVILLE   TSTM      72  70  93 SE5       29.93R
LACON          CLOUDY    74  67  79 W5        29.93R
LAWRENCEVILLE  MOSUNNY   82  75  79 S5        29.95R HX  89
LITCHFIELD     CLOUDY    68  67  95 CALM      29.93R
$$


CITY           SKY/WX    TMP DP  RH WIND       PRES   REMARKS
LINCOLN        TSTM      74  71  92 SW5       29.92R
MACOMB         CLOUDY    68  68 100 E5        29.93F
MATTOON        PTSUNNY   79  72  79 SW7       29.93S HX  82
MT CARMEL AP   PTSUNNY   82  73  74 CALM      29.95R HX  88
OLNEY-NOBLE AP PTSUNNY   79  73  83 CALM      29.95S HX  82
PARIS          SUNNY     80  73  79 SW3       29.94S HX  84
PEORIA         CLOUDY    74  68  81 SW10      29.97R
PONTIAC        MOSUNNY   81  68  65 SW6       29.92R HX  83
RANTOUL        SUNNY     81  65  58 SW5       29.93S HX  83
ROBINSON       MOSUNNY   84  76  79 W3        29.94S HX  93
SPRINGFIELD    TSTM      70  68  93 S6        29.91S FOG
TAYLORVILLE    TSTM      68  64  88 N5        29.97R
$$

...REGIONAL REPORTS...


CITY           SKY/WX    TMP DP  RH WIND       PRES   REMARKS
CHICAGO O`HARE MOSUNNY   78  61  55 W5        29.88R HX  80
KANKAKEE       SUNNY     78  69  74 SW5       29.91S HX  80
MOLINE         CLOUDY    74  66  76 SW5       29.90R
MOUNT VERNON   CLOUDY    72  66  83 CALM      29.96R
PITTSFIELD     CLOUDY    74  71  89 S3        29.92R
QUINCY         CLOUDY    75  71  87 CALM      29.90R
ROCKFORD       PTSUNNY   78  65  63 W6        29.90R HX  80
$$


CITY           SKY/WX    TMP DP  RH WIND       PRES   REMARKS
BURLINGTON     CLOUDY    70  69  97 S5        29.87F
CEDAR RAPIDS   CLOUDY    67  66  97 SW6       29.93R
DES MOINES     TSTM      68  64  87 W5        29.93F FOG
KIRKSVILLE     CLOUDY    74  68  81 CALM      29.93R
OTTUMWA        LGT RAIN  68  66  93 NE15      29.90S FOG
ST LOUIS       CLOUDY    81  73  76 S7        29.93F HX  86
$$


CITY           SKY/WX    TMP DP  RH WIND       PRES   REMARKS
TERRE HAUTE    SUNNY     81  72  74 W5        29.94R HX  85
EVANSVILLE     MOSUNNY   84  73  69 CALM      29.94S HX  90
INDIANAPOLIS   MOSUNNY   77  71  82 SW6       29.94R
LAFAYETTE      SUNNY     76  68  76 SW3       29.92R
MADISON        MOSUNNY   76  64  66 VRB5      29.88R
MILWAUKEE      MOSUNNY   76  63  64 W9        29.86S
$$




USA.gov is the U.S. government's official web portal to all federal, state and local government web resources and services.